Terug naar catalogus

BLOCK DM-SL R/B

ActiefGTO
NORAD 25662·ROCKET BODY· XX

Gelanceerd Mar 28, 1999 vanaf Sea Launch Platform

Loading…

TLE

VerouderendSource: Space-Track

Epoch: Sep 14, 2026, 13:59 UTC

1 25662U 99014B   26257.58317454 -.00000066  00000-0  76237-3 0  9994
2 25662   1.0193 254.7520 7173531 139.7952  10.4261  2.24375055225157

Volg BLOCK DM-SL R/B in realtime met AllMySat

Download on the App Store